Tracking 27405 objects as of 1-Jun-2023
HD Live streaming from Space Station
objects crossing your sky now

SINAH 1

Track SINAH 1 now!
10-day predictions
SINAH 1 is classified as:


NORAD ID: 28893
Int'l Code: 2005-043D
Perigee: 682.5 km
Apogee: 704.6 km
Inclination: 98.2 °
Period: 98.5 minutes
Semi major axis: 7064 km
RCS: 0.8773 m2 (medium)
Launch date: October 27, 2005
Source: Iran (IRAN)
Launch site: PLESETSK MISSILE AND SPACE COMPLEX (PKMTR)

Sinah 1 is an Iranian microsatellite (170 kg). Iranian press reports that it is intended for "telecommunications and research".
Your satellite tracking list
Your tracking list is empty




NASA's NSSDC Master Catalog

Two Line Element Set (TLE):
1 28893U 05043D   23152.19742675  .00000456  00000-0  99973-4 0  9992
2 28893  98.1506 275.0773 0015662 155.5077 204.6872 14.62105821938168
Source of the keplerian elements: AFSPC